Regional Weather Roundup
Issued by NWS

Current Version | Previous Version | Text Only | Print | Product List | Glossary On
Versions: 1 2 3 4 5 6 7 8 9 10 11 12 13 14 15 16 17 18 19 20 21 22 23 24 25 26 27 28 29 30 31 32 33 34 35 36 37 38 39 40 41 42 43 44 45 46 47 48 49 50
000
ASUS45 KSLC 102210
RWRUT

UTAH REGIONAL WEATHER ROUNDUP
NATIONAL WEATHER SERVICE SALT LAKE CITY UT
300 PM MST WED FEB 10 2016

UTZ001>011-023>025-102300-

NORTHERN UTAH

CITY           SKY/WX    TMP DP  RH WIND       PRES   REMARKS
BRIGHAM CITY   CLOUDY    29  28  94 NW6       30.47S WCI  23
HILL AFB       NOT AVBL
LOGAN          FOG       20  19  96 N3        30.45F VSB 1
OGDEN          CLOUDY    30  27  88 N7        30.43F FOG     WCI  23
PROVO AIRPORT  MOSUNNY   28  27  93 CALM      30.43F HAZE
SALT LAKE CITY PTSUNNY   33  28  81 NW6       30.43F HAZE    WCI  28
VERNAL         CLOUDY    29  19  66 S6        30.36  WCI  23
WENDOVER       CLOUDY    30  27  86 CALM      30.45F
HEBER CITY     SUNNY     34  21  60 CALM      30.37F
WEST JORDAN    SUNNY     36  28  75 CALM      30.41F

$$

UTZ012>022-026-027-102300-

SOUTHERN/CENTRAL UTAH

CITY           SKY/WX    TMP DP  RH WIND       PRES   REMARKS
BLANDING       MOSUNNY   43  28  56 CALM      30.45F
BRYCE CANYON   SUNNY     46  19  34 CALM      30.40
CEDAR CITY     SUNNY     42  28  57 NE7       30.36
DELTA          MOSUNNY   24  23  97 SW8       30.42S WCI  15
HANKSVILLE     MOSUNNY   45  30  57 CALM      30.40F
MILFORD        MOSUNNY   30  23  75 NW5       30.38  WCI  25
MOAB/CYNLANDS  MOSUNNY   39  28  64 NW7       30.38  WCI  34
PRICE          MOSUNNY   40  22  48 CALM      30.38
ST GEORGE      CLEAR     63  27  25 CALM      30.30F
KANAB          SUNNY     66  21  18 CALM      30.35F

$$

REGIONAL REPORTS     COLORADO/ARIZONA

CITY           SKY/WX    TMP DP  RH WIND       PRES   REMARKS
CRAIG, CO      MIX PCPN  27  20  75 SW5       30.34F WCI  22
GRAND JUNCTION CLOUDY    38  29  70 NW7       30.37F WCI  33
RIFLE          CLOUDY    40  19  43 CALM      30.36F
MONTROSE       SUNNY     46  22  38 N5        30.37S
CORTEZ         SUNNY     50  22  33 CALM      30.37F
PAGE, AZ       MOSUNNY   53  28  38 VRB3      30.35F
GRAND CANYON   MOSUNNY   63   7  11 W5        30.39F
KINGMAN        SUNNY     70  21  15 CALM      30.26F
FLAGSTAFF      MOSUNNY   63   2   8 W7        30.39F

$$

REGIONAL REPORTS    NEVADA/IDAHO/WYOMING

CITY           SKY/WX    TMP DP  RH WIND       PRES   REMARKS
LAS VEGAS, NV  MOSUNNY   69  24  18 NE5       30.20F
ELY            SUNNY     40  23  50 S12       30.37  WCI  33
ELKO           SUNNY     29  19  66 SE3       30.43F
POCATELLO, ID  SUNNY     37  27  67 E6        30.40  WCI  32
BURLEY         SUNNY     45  32  60 VRB6      30.35
EVANSTON, WY   CLOUDY    39  23  52 S9        30.37  WCI  33
ROCK SPRINGS   CLOUDY    42  18  37 SW15G24   30.32
KEMMERER       CLOUDY    37  23  56 SW9       30.35F WCI  31

$$



USA.gov is the U.S. government's official web portal to all federal, state and local government web resources and services.